Theta_e
309 310 309 309 306 305 305 305 307 309 309 309 310 311 313 313 316 321 324 325 322 327 328 324 326 329 332 334 338 337 337 335 334 338 338 337 338 339 338 339 341 342 340 339 339 339 342 338 337 339 344 345 342 340
310 311 310 311 307 305 305 305 307 309 309 309 309 310 312 313 318 321 324 323 320 322 328 327 325 326 326 327 329 335 338 337 338 338 337 339 338 337 338 338 337 340 339 341 343 345 342 340 342 342 341 342 345 345
311 311 311 311 310 306 305 305 306 309 309 309 309 310 312 313 319 321 323 324 322 325 327 327 326 326 324 326 326 332 334 334 335 336 339 338 339 338 339 337 338 338 337 339 338 338 341 340 340 340 340 340 341 342
310 310 311 311 310 307 305 305 307 309 308 308 309 310 312 314 319 321 321 323 324 327 330 328 326 326 324 324 325 327 329 329 332 334 335 337 337 337 337 341 339 339 338 336 338 338 339 340 340 340 339 339 340 340
309 310 310 311 311 308 306 305 306 309 308 308 309 310 313 316 319 322 322 322 323 326 329 328 325 325 324 324 324 325 327 329 331 334 335 336 336 338 335 336 336 335 335 337 340 339 340 342 341 339 340 340 339 339
308 309 310 310 310 307 305 306 308 310 308 308 309 310 313 317 319 322 324 325 321 322 326 330 326 326 325 324 325 325 325 325 327 329 332 333 334 334 335 337 334 334 335 335 336 336 337 337 336 337 337 339 339 339
308 309 310 309 307 305 306 308 310 310 308 309 309 311 313 318 319 321 322 322 321 322 326 329 328 325 325 325 324 324 324 325 326 327 327 328 328 328 331 334 334 331 328 328 328 328 329 330 329 330 334 333 332 332
309 310 309 306 305 306 308 310 310 308 307 308 309 310 314 317 319 320 319 319 322 324 326 330 329 326 325 326 326 325 326 326 327 328 328 328 328 328 329 330 329 333 335 332 332 331 329 326 324 326 328 328 327 329
306 306 306 306 306 307 310 310 308 307 307 309 309 311 315 316 318 321 316 317 322 327 328 328 329 330 325 327 328 326 327 330 328 329 329 328 330 330 330 330 332 338 338 337 337 335 332 332 333 330 328 327 327 326
306 306 306 307 308 310 309 308 307 308 309 309 312 316 316 317 319 321 317 322 321 325 325 330 328 331 326 328 329 328 327 331 332 330 329 330 330 333 334 334 337 336 335 334 335 337 337 332 331 330 330 328 329 331
307 307 308 308 310 309 308 307 308 309 312 314 316 315 316 318 318 319 318 320 323 325 325 327 328 329 328 330 330 329 331 331 331 333 331 333 332 332 333 336 336 335 334 332 333 335 336 337 337 337 337 336 336 336
309 309 309 310 310 308 307 308 309 312 315 317 316 317 317 318 318 321 322 320 324 328 326 327 327 328 329 331 330 330 332 331 334 332 332 333 342 337 335 334 335 335 334 333 333 334 334 335 336 336 337 337 337 337
309 310 310 310 308 308 309 311 314 316 317 317 316 316 318 318 326 322 324 326 329 326 325 326 328 329 328 329 331 330 331 332 330 331 332 338 338 337 335 335 334 333 333 332 332 331 331 332 333 335 335 336 338 338
309 308 308 308 308 309 312 313 315 317 317 319 317 318 321 323 322 323 326 327 326 325 325 325 326 327 327 328 330 331 331 330 331 331 331 338 336 335 335 334 333 332 332 331 331 330 330 330 332 333 335 336 338 338
308 308 307 308 310 312 313 315 316 317 319 320 321 326 322 321 321 322 324 325 325 324 324 326 326 327 328 330 328 329 329 329 329 330 339 337 335 335 334 333 332 332 331 331 330 329 329 330 331 332 334 336 338 338
307 307 308 309 314 314 315 317 318 318 320 320 319 321 321 323 323 323 325 325 325 325 325 325 326 328 327 327 328 328 327 328 332 333 332 334 334 333 333 332 332 331 331 331 329 328 329 330 331 332 334 334 337 338
310 311 312 314 314 314 316 317 319 322 322 321 321 322 323 323 324 324 324 324 324 324 328 325 326 327 327 328 327 327 328 333 330 328 330 333 332 333 333 333 332 331 331 331 330 329 329 330 330 331 333 334 336 336
313 313 314 314 314 316 317 318 319 321 322 322 322 323 324 324 325 324 324 325 324 324 325 326 325 327 327 327 327 327 327 330 330 329 329 331 331 332 331 331 331 331 330 330 330 329 329 330 330 332 333 334 334 333
314 314 314 315 315 318 317 316 317 322 322 323 324 325 326 326 325 324 324 325 324 324 324 324 326 327 329 330 331 329 329 329 329 328 327 329 331 329 329 328 331 331 331 331 330 329 327 329 330 332 333 331 332 331
314 314 314 315 319 320 316 318 318 322 324 324 326 326 325 326 325 325 325 325 324 324 324 327 328 328 328 328 327 327 327 328 327 327 328 328 328 330 330 330 329 329 329 328 328 328 328 329 329 330 331 330 330 332
316 316 315 318 320 320 318 320 319 322 322 324 324 325 324 324 323 324 324 324 325 325 326 324 324 324 325 325 325 326 326 326 327 327 327 327 327 328 327 326 328 328 328 328 328 329 329 330 331 331 330 329 330 329
317 315 319 318 320 321 320 320 323 323 324 324 323 323 323 323 322 323 324 323 321 319 318 318 318 319 323 325 326 326 326 326 326 327 326 325 327 327 328 328 329 329 329 329 331 331 332 330 332 330 330 329 329 330
315 317 319 319 319 319 320 322 323 323 323 322 322 322 322 322 322 323 320 318 316 315 315 315 315 317 319 322 322 322 324 327 327 328 327 326 328 327 328 329 329 328 329 330 331 330 329 329 329 329 327 327 328 329
314 319 320 321 320 320 321 323 322 322 321 322 322 322 322 322 320 319 319 316 314 313 313 314 314 316 319 321 322 323 324 324 325 326 325 327 327 328 327 326 326 327 326 327 329 329 329 328 326 326 325 325 326 325
319 317 320 317 321 322 322 323 322 322 322 322 322 322 320 318 320 318 318 314 313 314 312 312 311 311 314 318 322 324 324 325 326 324 323 325 325 326 325 324 324 323 324 326 326 327 327 326 327 327 324 325 324 323
316 320 320 322 322 323 322 323 323 322 322 322 320 318 316 319 318 318 317 313 314 315 313 311 310 311 311 311 312 313 314 316 318 320 319 319 321 324 323 321 322 323 322 323 322 323 323 323 323 324 324 324 324 325
319 321 321 321 322 322 322 322 322 322 322 321 320 317 319 319 320 317 315 314 317 315 313 312 312 313 313 313 313 314 313 313 315 317 317 317 317 316 317 319 321 322 321 321 322 322 321 323 323 321 322 323 323 323
318 320 322 321 321 321 322 321 321 321 319 319 319 320 320 321 320 318 318 315 316 316 316 314 314 314 314 313 313 313 313 314 315 316 315 314 315 315 315 315 318 321 321 321 321 320 323 325 324 323 323 323 323 321
319 318 319 318 318 317 319 319 318 318 318 320 322 321 319 319 319 318 316 314 313 313 313 313 313 313 313 312 311 311 312 312 313 314 315 315 315 315 315 315 315 316 317 316 315 316 318 317 318 318 317 318 317 317
318 317 318 318 319 320 319 318 318 318 320 319 317 315 314 313 313 313 314 313 313 313 311 311 311 310 310 311 311 310 310 309 310 311 311 312 313 313 314 315 315 314 314 314 313 313 313 314 314 314 314 314 314 314
318 319 319 319 319 319 319 319 318 317 315 315 314 314 314 313 313 313 313 313 313 313 312 311 310 309 310 309 309 309 309 307 306 306 306 308 309 311 311 312 313 314 314 314 314 314 313 314 313 314 313 313 313 312
319 319 319 320 318 317 317 316 316 316 315 315 315 315 315 316 316 314 313 314 314 313 311 311 311 310 309 309 309 308 307 306 305 303 301 303 303 305 307 309 310 311 312 312 313 313 313 313 312 312 312 312 311 311
319 318 318 318 319 318 318 318 318 318 317 317 317 317 317 317 317 315 313 313 313 313 312 311 310 310 309 308 308 307 307 307 305 305 301 299 299 300 303 304 307 308 309 309 309 310 310 310 310 310 310 309 309 308
Wind_Speed
25 23 23 23 20 17 17 20 18 17 15 16 15 14 21 20 17 13 8 12 10 13 8 2 4 5 4 7 4 13 7 9 12 9 7 3 4 4 8 8 3 6 9 11 12 10 6 11 4 8 7 4 5 3
25 23 24 23 22 16 16 19 18 16 16 15 14 14 21 20 18 13 5 9 10 10 9 6 8 6 3 4 10 1 5 0 8 5 1 4 2 2 5 9 10 8 10 9 6 4 2 4 3 6 5 1 2 2
23 21 20 22 22 19 16 17 19 16 16 14 15 14 21 22 17 19 8 6 6 10 15 11 11 7 4 4 4 6 3 2 3 5 6 0 2 4 4 9 4 5 4 7 10 7 5 7 1 2 1 2 4 6
21 22 22 21 21 21 16 19 18 17 16 15 14 15 21 21 16 21 12 5 7 6 8 14 5 4 4 3 3 1 2 2 1 1 5 4 5 3 4 5 5 7 4 4 6 8 3 2 0 1 1 4 5 5
18 18 19 21 21 20 17 20 19 17 15 13 14 17 21 19 16 20 15 8 9 5 6 6 8 4 3 5 5 3 1 1 3 5 5 5 3 2 5 4 6 7 6 7 5 9 7 7 2 3 5 5 6 8
14 14 15 17 20 18 15 18 17 17 14 12 14 19 19 17 16 14 5 10 10 7 6 4 7 5 5 6 9 6 3 2 3 3 5 2 2 5 5 4 7 1 8 9 8 9 7 8 8 9 8 6 7 8
8 9 11 15 18 15 18 16 16 17 12 11 12 19 19 17 18 9 4 8 15 6 5 4 7 7 8 10 8 7 5 3 5 5 4 8 5 5 6 8 10 6 6 8 10 12 13 13 14 13 11 12 13 15
2 8 14 15 14 17 16 14 16 14 13 12 12 18 18 11 16 7 1 7 17 6 4 4 5 10 13 10 7 6 7 6 6 4 2 8 8 5 4 5 3 4 7 7 6 10 12 13 13 15 18 20 22 23
9 9 10 14 18 18 12 19 16 12 13 14 11 15 12 7 7 9 4 14 9 5 5 5 7 7 15 12 9 8 6 5 5 5 5 2 5 5 2 5 1 2 4 7 10 10 11 12 14 14 14 13 15 17
8 12 15 15 10 16 18 16 13 14 15 16 20 6 4 9 11 12 4 4 4 5 5 6 3 6 16 10 9 8 7 5 5 7 5 5 9 11 7 3 2 2 3 7 10 10 9 11 10 10 12 14 14 15
11 12 11 12 13 16 15 15 18 20 24 13 5 3 14 20 6 4 2 1 4 4 8 8 8 8 6 8 6 5 3 5 4 5 4 5 6 12 8 5 3 2 3 6 8 10 12 12 12 13 14 14 15 15
10 7 12 14 15 15 15 17 20 23 10 7 9 15 6 5 4 2 3 3 6 6 12 12 11 6 7 2 5 5 3 2 3 5 3 4 7 11 9 5 2 3 4 5 7 8 10 11 12 13 15 16 16 17
12 9 14 13 13 15 17 22 28 16 25 11 5 3 3 3 4 5 6 4 5 10 13 13 8 7 5 7 6 4 4 4 2 3 4 4 11 8 6 5 3 1 2 4 6 9 10 12 13 14 15 16 16 17
17 14 13 14 16 17 21 22 21 20 4 3 3 2 3 5 4 4 3 8 11 12 20 20 14 9 7 6 2 4 2 3 3 4 6 9 13 9 6 4 2 0 3 5 8 10 11 13 14 15 15 16 17 17
12 13 12 13 15 21 22 10 14 8 3 2 2 3 4 4 5 5 7 7 11 17 23 18 9 7 6 2 3 1 4 5 5 1 9 12 11 5 2 2 1 3 4 6 10 12 14 15 16 16 16 17 16 15
14 13 13 14 23 21 10 12 7 2 2 4 2 2 3 2 6 8 9 14 15 15 15 8 2 3 4 2 5 6 3 4 4 6 9 6 5 2 2 4 4 4 5 8 11 14 16 17 17 17 17 18 16 15
16 18 17 19 14 7 9 7 2 1 1 3 2 1 2 7 6 10 14 12 10 8 1 3 6 4 1 4 5 3 1 8 7 8 4 4 2 4 4 6 5 6 6 9 12 15 18 17 16 17 17 15 15 17
26 21 15 10 9 10 9 5 2 2 3 4 2 3 8 7 3 18 15 10 5 5 2 4 3 5 3 4 1 4 5 10 6 6 5 4 4 6 5 6 5 5 7 10 14 17 18 16 16 14 16 14 15 15
18 14 12 10 7 7 2 4 3 2 2 4 7 9 12 10 12 13 11 7 6 4 4 3 2 2 2 8 6 5 4 2 0 1 4 4 6 6 6 7 8 9 12 15 18 18 18 16 14 15 14 15 14 16
12 14 12 11 10 3 3 3 3 3 3 4 5 10 10 9 7 11 10 5 2 0 2 2 5 11 9 5 3 3 4 4 6 8 7 4 6 8 10 10 14 16 18 18 19 17 16 14 12 14 12 14 16 15
10 6 10 8 3 2 3 2 4 3 4 5 6 8 6 9 10 10 7 7 7 7 7 10 10 9 8 7 7 8 8 9 10 11 12 14 12 12 14 16 15 16 18 18 17 14 12 13 14 13 12 13 14 16
2 6 4 4 2 2 3 1 1 4 3 5 5 6 5 7 10 11 10 12 6 8 10 13 13 12 11 9 9 9 10 10 10 10 10 10 11 10 9 11 12 11 11 11 12 12 12 12 9 11 12 15 15 15
2 6 3 3 1 2 3 2 2 2 2 3 5 3 5 5 7 7 6 7 7 12 13 14 13 10 8 9 9 8 7 8 7 6 7 8 8 9 7 7 7 8 10 10 11 9 10 9 10 6 13 14 13 9
3 3 3 3 2 2 4 2 2 3 4 3 3 4 4 6 7 6 3 4 12 18 22 21 19 11 8 9 9 4 2 2 3 4 6 6 6 5 4 5 8 8 9 10 11 12 10 7 9 7 11 15 13 9
3 3 2 3 0 2 2 4 3 4 3 3 3 4 5 6 3 3 2 6 10 18 24 18 20 23 25 25 21 13 11 8 10 12 14 13 12 8 7 8 10 12 10 6 8 12 12 13 12 9 9 11 13 11
2 1 2 1 3 0 2 3 2 3 4 3 4 3 3 3 3 3 1 6 9 13 18 21 22 24 25 22 21 22 19 16 17 15 14 14 14 13 10 11 13 10 11 9 8 10 13 16 12 6 8 9 12 11
1 1 2 2 2 4 5 6 6 5 4 3 3 2 1 3 3 3 5 2 3 5 7 15 17 16 17 16 16 13 13 16 15 13 12 13 13 16 14 10 8 10 8 9 10 12 15 10 10 12 11 11 11 12
2 3 2 4 5 5 3 4 3 3 2 3 6 2 2 3 3 5 4 0 3 2 2 4 6 7 10 12 12 13 13 11 9 4 7 11 13 13 18 18 20 13 9 9 11 13 13 9 4 9 9 10 13 15
1 6 5 7 5 5 3 3 2 3 5 5 3 3 5 7 7 5 3 4 5 7 7 7 8 7 7 9 12 13 13 13 12 11 11 11 12 13 13 13 13 11 11 15 14 15 14 15 12 11 13 13 14 14
2 4 4 3 2 2 2 6 9 10 4 6 13 19 16 13 10 8 7 7 7 8 8 8 9 9 9 9 9 11 13 14 15 13 14 13 12 11 11 10 10 9 8 8 8 8 11 10 10 10 9 9 10 11
10 11 18 18 17 16 16 17 17 18 18 18 15 17 16 14 10 8 7 7 7 7 8 9 10 10 10 10 9 8 10 11 13 13 11 10 9 10 11 11 10 8 8 8 8 8 8 7 8 8 9 10 10 10
18 19 19 15 18 16 15 16 15 15 13 12 12 12 11 8 6 4 4 5 5 7 8 8 8 8 7 7 7 7 8 9 12 15 14 13 12 11 9 9 9 9 8 7 7 7 7 7 6 7 8 8 8 9
14 15 15 13 11 9 10 9 8 7 8 8 7 6 4 1 3 3 3 4 4 4 4 5 5 5 6 6 6 7 7 8 15 17 16 14 12 12 12 9 9 8 7 7 7 7 7 7 7 7 7 7 7 8
Wind_Direction
283 276 274 262 258 265 249 241 239 241 232 230 231 231 211 214 209 215 216 228 219 267 277 279 304 321 283 271 310 127 198 224 200 243 242 155 293 162 235 278 334 249 209 237 254 264 264 352 184 239 55 36 329 247
281 274 268 263 248 248 244 234 234 235 228 225 225 225 207 207 201 198 208 223 223 246 302 294 245 244 251 345 341 104 14 62 23 252 227 33 176 218 263 242 183 253 297 303 341 62 104 348 35 33 348 357 283 188
274 269 262 252 245 231 235 235 230 229 220 216 223 223 205 204 199 191 191 225 220 254 263 238 221 213 229 254 255 302 95 17 63 359 354 42 331 325 225 235 245 196 308 271 282 287 26 332 357 337 334 290 223 211
276 265 252 247 240 222 224 228 222 221 212 215 220 216 203 202 198 188 183 232 219 284 273 163 196 184 220 220 195 226 25 61 58 269 241 259 245 158 270 59 285 45 164 228 264 249 232 169 102 23 251 238 228 215
276 264 245 235 230 213 220 221 213 211 208 210 214 208 200 200 197 188 186 221 219 263 323 131 152 172 185 204 183 170 157 165 217 203 228 241 299 320 267 316 251 193 228 235 46 39 356 87 66 322 290 261 257 261
276 258 232 224 208 199 211 203 206 199 202 212 206 206 198 189 188 176 200 227 209 223 278 199 108 152 149 150 165 169 181 169 238 249 258 336 358 279 272 231 216 341 35 12 344 345 312 301 292 290 287 275 283 271
279 226 203 184 182 193 189 192 193 188 198 195 200 197 196 186 180 175 178 157 183 201 245 215 153 158 154 145 151 164 181 189 244 209 237 250 188 222 268 264 58 27 350 326 304 301 293 288 283 286 245 268 284 278
162 158 161 170 180 175 177 183 177 179 183 188 193 191 191 184 185 184 234 177 169 204 246 270 102 152 177 173 154 166 166 181 185 251 198 233 175 228 253 88 83 26 326 295 314 301 295 295 282 278 280 282 280 276
147 154 163 162 164 177 181 168 169 176 182 181 173 171 165 181 165 183 142 157 160 227 281 230 165 158 178 198 135 183 195 197 114 234 219 210 219 212 156 136 219 39 326 321 314 315 305 282 283 277 284 288 296 288
153 142 152 156 171 156 165 161 166 164 155 145 138 154 175 157 140 155 93 132 198 219 241 261 91 130 185 162 183 167 187 233 191 201 122 234 247 124 149 170 205 269 323 334 327 338 332 315 323 313 301 293 292 294
132 143 157 169 153 155 159 161 157 154 146 152 150 126 145 134 112 79 68 29 175 237 200 229 206 141 197 185 171 204 174 168 234 139 225 206 218 159 148 179 192 269 323 326 329 319 320 321 321 312 308 305 300 296
132 141 156 150 151 159 162 160 160 148 135 147 135 120 115 76 58 144 173 250 236 203 175 178 185 177 144 212 100 169 216 176 261 128 231 241 98 123 150 158 229 297 327 335 332 324 317 310 309 307 304 303 299 295
135 140 150 155 156 157 154 149 145 131 126 116 78 98 116 105 197 195 175 212 198 146 164 151 151 132 154 215 88 225 213 219 91 221 228 65 123 132 142 148 148 56 14 359 350 338 327 318 310 302 301 301 299 295
135 142 146 147 148 151 151 150 142 146 116 98 122 118 196 183 212 209 273 285 118 150 158 170 152 180 150 181 153 210 69 178 239 246 213 131 134 140 152 161 194 19 354 342 338 332 333 328 314 306 297 299 300 299
137 135 131 140 146 150 149 133 152 138 124 125 211 149 181 205 206 200 195 143 135 145 156 153 154 144 183 130 231 149 176 229 210 198 80 101 114 134 176 215 269 291 316 317 329 329 325 322 317 309 303 299 296 297
120 120 135 143 144 145 99 139 140 102 111 147 201 212 177 170 148 193 184 126 136 131 130 122 168 134 187 172 178 194 225 225 75 63 74 111 126 182 281 276 272 290 304 311 318 322 323 319 316 310 308 302 303 300
118 126 130 132 136 125 116 115 70 261 311 133 106 124 238 294 194 146 131 117 138 128 72 169 181 148 132 204 204 163 281 77 78 73 48 36 300 279 272 266 255 270 293 307 314 317 319 316 313 310 308 309 310 305
129 142 134 119 105 77 54 24 328 274 103 84 145 192 185 167 178 120 123 121 102 166 61 38 131 198 193 184 145 98 88 57 32 24 339 329 299 298 278 266 247 277 294 297 308 313 319 314 310 309 308 302 317 315
99 97 104 108 107 92 20 20 10 27 76 75 105 115 106 114 115 114 116 93 72 80 136 170 162 39 27 39 61 80 93 79 264 289 307 310 294 286 285 289 291 291 293 296 304 305 309 308 301 302 301 311 319 315
78 61 58 70 80 68 57 12 21 359 59 45 64 80 93 98 101 92 90 86 80 338 132 51 36 40 42 37 26 355 325 320 306 298 283 270 294 277 284 295 297 298 300 299 299 298 304 300 301 305 307 311 310 311
49 17 42 63 40 59 59 53 12 15 28 64 81 78 68 85 94 94 90 87 58 26 19 13 356 347 344 326 310 296 292 293 293 297 303 299 302 302 293 294 293 300 301 300 299 303 303 309 300 303 311 318 325 322
345 26 48 7 36 111 112 228 16 117 111 103 80 81 88 87 66 52 56 61 59 24 8 350 335 320 314 313 314 305 295 289 285 285 290 293 299 299 302 308 303 306 306 307 313 315 309 313 303 313 321 328 332 332
4 13 359 7 93 79 119 98 104 69 126 116 113 70 50 48 28 35 72 45 39 11 18 7 342 316 309 315 307 296 299 281 276 291 296 293 287 288 298 309 314 331 328 330 327 338 338 347 341 350 6 354 343 347
348 2 345 359 60 128 130 97 101 91 68 58 69 78 47 31 30 58 60 50 28 32 32 28 33 59 76 70 72 61 31 17 354 324 313 308 319 352 359 21 5 353 342 344 358 358 12 6 35 34 35 28 19 38
306 3 302 281 42 145 140 120 95 81 90 63 83 70 43 30 54 58 41 5 13 23 34 44 51 47 48 58 70 69 56 59 73 70 51 45 38 47 45 22 18 14 8 348 36 33 28 25 23 30 36 28 21 22
357 104 351 6 114 42 86 101 101 122 110 74 73 80 53 56 63 65 74 9 25 35 45 43 45 51 51 51 59 63 65 69 63 55 44 44 45 43 41 36 30 26 21 39 56 51 29 13 5 14 4 9 14 9
303 72 91 55 72 120 115 92 81 68 73 73 87 91 183 118 108 118 167 5 26 55 36 33 34 32 26 34 40 44 45 46 55 61 56 51 48 37 32 19 11 25 44 80 44 2 353 356 40 52 36 19 9 6
298 332 53 61 63 33 82 76 50 59 100 157 121 118 63 36 104 159 169 324 355 354 306 348 347 26 34 38 40 42 39 40 38 45 57 44 41 35 33 36 33 41 25 349 12 21 14 20 31 26 44 64 63 56
120 117 101 85 62 43 44 91 137 170 167 167 158 101 106 97 125 133 119 63 61 70 69 61 54 52 50 47 41 43 42 42 45 47 39 34 28 25 26 31 31 37 34 40 42 45 56 62 58 53 51 53 52 47
153 136 109 114 110 84 175 150 142 127 132 123 119 112 107 109 111 109 102 89 76 68 62 57 52 50 46 44 52 46 41 40 42 42 27 22 16 11 11 11 15 20 21 23 26 22 31 34 36 41 41 41 38 36
137 128 111 100 106 113 122 124 119 114 116 118 120 118 118 118 105 92 85 75 73 69 61 54 48 44 42 40 41 42 39 30 31 29 34 28 20 19 16 11 7 4 5 8 16 22 22 32 37 35 33 32 32 33
109 108 113 111 108 103 103 108 112 114 119 122 122 128 138 128 107 102 65 72 69 55 52 45 38 35 41 42 41 37 45 35 25 18 18 20 18 18 15 16 13 13 13 14 14 11 14 14 17 13 15 15 15 18
113 116 116 123 125 119 133 125 119 131 134 142 148 146 168 217 114 134 104 90 102 85 58 40 33 30 35 36 42 31 24 1 6 359 5 13 18 23 24 22 32 18 17 20 19 17 20 25 28 23 23 19 17 18